Location: Kerentrech
(47.7567°N, 3.3595°W)
Time: 14:25:02
(UTC+00:00)

STARLINK-1139 - Pass Details

Date: 17 February 2020
Orbit: 379 x 380 km, 53.0° (Epoch: 28 March)

Event Time Altitude Azimuth Distance (km) Brightness Sun altitude
Exits shadow 04:58:53 24° 35° (NE) 851 5.0 -23.8°
Drops below altitude 10° 05:00:33 10° 57° (ENE) 1,412 6.6 -23.5°
Enters shadow 05:54:53 -72° 264° (W) 12,547 10.5 -14.4°
Maximum altitude 06:33:59 33° 10° (N) 674 4.1 -7.9°
